sat.trackr.live / text

‹ back to catalog

STARLINK-36921

NORAD 68019 · 2026-040E

PAYLOAD ACTIVE UNKNOWN

§ Identity

Operator
Country
US
Launch date
2026-03-01
Launch site
AFWTR
Launch vehicle
Mass (kg)
RCS (m²)

Purposes: comms

External: N2YO · Heavens-Above · Gunter

§ Orbital elements

Epoch: 2026-05-25T02:52:46.241760Z

Period
93.91 min
Inclination
97.2851°
Eccentricity
0.0001874
Mean motion
15.33451348 rev/d
Perigee alt
464.2 km
Apogee alt
466.8 km
Semi-major
6,843.7 km
B*
5.9750e-4
RAAN
94.0996°
Arg perigee
95.1704°
Mean anomaly
264.9753°
Rev number
1,317

§ Raw data

STARLINK-369211 68019U 26040E   26145.11997965  .00019268  00000+0  59750-3 0  99952 68019  97.2851  94.0996 0001874  95.1704 264.9753 15.33451348 13176

JSON: /api/v1/satellites/68019 · /tle

For live sub-satellite position, see the globe view (requires WebGL).

§ Visibility from observer

Set your observer location to see the next 7 days of passes ≥ 10°. The values pass through the URL so the page stays shareable.

No JS? Fill the form by hand. The geolocation button needs JavaScript.